Regional Weather Roundup
Issued by NWS

Home | Current Version | Previous Version | Graphics & Text | Print | Product List | Glossary On
Versions: 1 2 3 4 5 6 7 8 9 10 11 12 13 14 15 16 17 18 19 20 21 22 23 24 25 26 27 28 29 30 31 32 33 34 35 36 37 38 39 40 41 42 43 44 45 46 47 48 49 50
000
ASUS45 KBOU 261307
RWRCO

WEATHER ROUNDUP FOR COLORADO
NATIONAL WEATHER SERVICE DENVER/BOULDER CO
700 AM MDT SUN MAR 26 2017

NOTE: "FAIR" INDICATES FEW OR NO CLOUDS BELOW 12000 FEET WITH NO
SIGNIFICANT WEATHER AND/OR OBSTRUCTIONS TO VISIBILITY.

COZ001>005-013-030-031-261400-
...NORTHWEST COLORADO...

CITY           SKY/WX    TMP DP  RH WIND       PRES   REMARKS
CRAIG          CLOUDY    37  31  78 W12       29.97R
HAYDEN         CLOUDY    36  27  69 W7        29.95R
MEEKER         CLOUDY    36  34  92 CALM      29.96R
MOUNT WERNER   NOT AVBL
STEAMBOAT SPGS CLOUDY    34  32  93 SW7       29.93R WCI  28
WALDEN         NOT AVBL
$$

COZ006>008-011-261400-
...WEST CENTRAL VALLEYS...

CITY           SKY/WX    TMP DP  RH WIND       PRES   REMARKS
GRAND JUNCTION CLOUDY    46  38  73 N8        29.91R
MONTROSE       CLOUDY    39  36  89 S9        29.94R
EAGLE          LGT RAIN  36  32  87 E5        29.93R
RIFLE          CLOUDY    43  37  79 W7        29.92R
DELTA          MOCLDY    42  39  88 E3        29.92R
NUCLA          CLOUDY    41  37  87 CALM      29.97S
$$

COZ017>023-064>068-261400-
...SOUTHWEST COLORADO...

CITY           SKY/WX    TMP DP  RH WIND       PRES   REMARKS
DURANGO        FAIR      36  31  82 SW10      29.89R
CORTEZ         CLOUDY    40  39  97 NE3       29.94R
PAGOSA SPRINGS CLOUDY    35  35  99 SW5       29.91R WCI  31
TELLURIDE      SNOW      31  31 100 W16G22    29.95S VSB 1/4 WCI  20
WOLF CREEK PAS FOG       19  19 100 SW3       29.98R VSB 3/4
$$

COZ009-010-012-014-032>034-037-058>063-261400-
...CENTRAL COLORADO...

CITY           SKY/WX    TMP DP  RH WIND       PRES   REMARKS
ASPEN          CLOUDY    35  34  96 N3        29.90R
BUENA VISTA    FAIR      39  24  53 NW17G24   29.84R
COPPER MTN     SNOW      27  21  80 MISG      29.95R VSB 1/4
BERTHOUD PASS  CLOUDY    19   9  63 N22G33    29.93R WCI   3
COTTONWOOD PAS MOCLDY    36  23  60 NW6       29.88R
GUNNISON       FAIR      33  29  85 VRB5      29.89R WCI  29
KREMMLING      CLOUDY    37  36  93 CALM      29.93R
LEADVILLE      FAIR      28  21  75 NW8       29.90R WCI  20
MONARCH PASS   FOG       23  21  93 W7        30.03R VSB<1/4 WCI  15
SALIDA         FAIR      38  34  86 NW3       29.91R
SUNLIGHT       FOG       25  23  93 CALM      30.00R VSB 1/4
WILKERSON PASS CLOUDY    27  25  93 N8        29.93R WCI  18
$$

COZ069>075-261400-
...SAN LUIS VALLEY/SANGRE DE CRISTO MOUNTAINS...

CITY           SKY/WX    TMP DP  RH WIND       PRES   REMARKS
ALAMOSA        MIX PCPN  35  34  96 W5        29.84R WCI  31
LA VETA PASS   NOT AVBL
SAGUACHE       CLOUDY    34  32  93 NW7       29.85S WCI  28
$$

COZ035-036-038>040-261400-
...NORTHERN COLORADO FRONT RANGE...

CITY           SKY/WX    TMP DP  RH WIND       PRES   REMARKS
DENVER INTL AP CLOUDY    40  31  70 N9        29.81R
DMNS CITY PARK   N/A     43  32  64 NW8       29.83R
AURORA         CLOUDY    41  33  74 N7        29.82R
FRONT RANGE AP MOCLDY    41  36  81 NW8       29.81R
ERIE MUNI ARPT FAIR      40  33  75 CALM      29.83R
BOULDER MUN AP FAIR      43  34  70 CALM      29.83R
CENTENNIAL     CLOUDY    41  32  70 NW7       29.81R
BROOMFIELD     CLOUDY    43  32  65 N9        29.83R
FORT COLLINS   FAIR      46  36  68 N13       29.82R
LONGMONT       MOCLDY    46  37  69 CALM      29.84R
$$

COZ041-046-047-076>085-087-088-261400-
...PIKES PEAK/PALMER DIVIDE AND SOUTHERN FOOTHILLS...

CITY           SKY/WX    TMP DP  RH WIND       PRES   REMARKS
COLO. SPRINGS  LGT RAIN  41  36  82 N25G32    29.79R
A. F. ACADEMY  DRIZZLE   37  30  75 N7        29.81R
SCHRIEVER AFB  LGT RAIN  41  31  69 NW26G35   29.75R
ELLICOTT         N/A    N/A N/A N/A N22G30    29.74F
FALCON         FLURRIES  38  28  67 NW13G22   29.81F
FORT CARSON    PTCLDY    40  32  72 N25G35    29.75R
LIMON          FAIR      39  33  79 CALM      29.79R
MONUMENT HILL  CLOUDY    34  28  80 NW9       29.83S WCI  26
TRINIDAD       CLOUDY    42  31  64 NW6       29.74R
$$

COZ042>045-048>051-090-091-261400-
...NORTHEAST COLORADO...

CITY           SKY/WX    TMP DP  RH WIND       PRES   REMARKS
GREELEY ARPT   FAIR      42  32  67 N10       29.83R
AKRON          CLOUDY    42  34  73 S6        29.80R
BURLINGTON     FOG       40  39  97 E10       29.79F VSB 1
WRAY           NOT AVBL
STERLING       CLOUDY    43  34  70 CALM      29.81R
HOLYOKE        DRIZZLE   41  37  87 SE3       29.84R
FORT MORGAN    MOCLDY    36  30  78 N10       29.81R
$$

COZ086-089-092>099-261400-
...SOUTHEAST COLORADO...

CITY           SKY/WX    TMP DP  RH WIND       PRES   REMARKS
PUEBLO         CLOUDY    44  30  57 N6        29.75R
LA JUNTA       MOCLDY    38  35  89 N13       29.72R
LAMAR          MOCLDY    38  35  89 E9        29.69R
SPRINGFIELD      N/A     38  27  64 NW5       29.67S
$$



USA.gov is the U.S. government's official web portal to all federal, state and local government web resources and services.